sat.trackr.live / text

‹ back to catalog

STARLINK-35361

NORAD 65667 · 2025-211R

PAYLOAD ACTIVE UNKNOWN

§ Identity

Operator
Country
US
Launch date
2025-09-19
Launch site
AFWTR
Launch vehicle
Mass (kg)
RCS (m²)

Purposes: comms

External: N2YO · Heavens-Above · Gunter

§ Orbital elements

Epoch: 2026-05-25T02:39:15.992928Z

Period
95.64 min
Inclination
97.4491°
Eccentricity
0.0002287
Mean motion
15.05657378 rev/d
Perigee alt
547.9 km
Apogee alt
551.1 km
Semi-major
6,927.6 km
B*
2.1981e-4
RAAN
189.0679°
Arg perigee
118.1818°
Mean anomaly
241.9640°
Rev number
3,854

§ Raw data

STARLINK-353611 65667U 25211R   26145.11060177  .00003115  00000+0  21981-3 0  99952 65667  97.4491 189.0679 0002287 118.1818 241.9640 15.05657378 38546

JSON: /api/v1/satellites/65667 · /tle

For live sub-satellite position, see the globe view (requires WebGL).

§ Visibility from observer

Set your observer location to see the next 7 days of passes ≥ 10°. The values pass through the URL so the page stays shareable.

No JS? Fill the form by hand. The geolocation button needs JavaScript.